Regional Weather Roundup
Issued by NWS

Home | Current Version | Previous Version | Graphics & Text | Print | Product List | Glossary Off
Versions: 1 2 3 4 5 6 7 8 9 10 11 12 13 14 15 16 17 18 19 20 21 22 23 24 25 26 27 28 29 30 31 32 33 34 35 36 37 38 39 40 41 42 43 44 45 46 47 48 49 50

000
ASUS43 KFSD 250910
RWRSD

WEATHER ROUNDUP FOR SOUTH DAKOTA
NATIONAL WEATHER SERVICE SIOUX FALLS SD
400 AM CDT WED MAY 25 2016

NOTE: "FAIR" INDICATES FEW OR NO CLOUDS BELOW 12,000 FEET WITH NO
SIGNIFICANT WEATHER AND/OR OBSTRUCTIONS TO VISIBILITY.


SDZ001>005-009-010-012>017-251000-
NORTHWEST AND NORTH CENTRAL SOUTH DAKOTA

CITY           SKY/WX    TMP DP  RH WIND       PRES   REMARKS
BUFFALO          N/A     50  47  89 SW9       29.76R
FAITH            N/A     52  48  86 E7        29.81F
MOBRIDGE       RAIN      60  53  77 SE23G33   29.81R
$$

SDZ012>016-024>037-041>051-057-063-072>074-251000-
SOUTHWEST AND SOUTH CENTRAL SOUTH DAKOTA

CITY           SKY/WX    TMP DP  RH WIND       PRES   REMARKS
RAPID CTY ARPT PTCLDY    49  47  93 CALM      29.84F
PIERRE         MOCLDY    57  54  89 N14       29.74R
CUSTER         CLOUDY    43  40  89 NE3       29.89F
ELLSWORTH AFB  CLEAR     49  49 100 S6        29.83F
PHILIP         MOCLDY    54  51  90 N3        29.80F
PINE RIDGE     CLOUDY    50  47  89 CALM      29.84S
WINNER         FAIR      59  55  87 E6        29.75S
$$

SDZ004>011-016>023-039-040-251000-
NORTHEAST SOUTH DAKOTA

CITY           SKY/WX    TMP DP  RH WIND       PRES   REMARKS
ABERDEEN       LGT RAIN  62  56  80 W16       29.80F
WATERTOWN      CLOUDY    67  59  75 CALM      29.79F
BROOKINGS      CLOUDY    66  61  84 SE14      29.76F
SISSETON         N/A     60  52  74 SW3       29.81F
$$

SDZ017-020-022-023-036>040-048>070-251000-
SOUTHEAST SOUTH DAKOTA

CITY           SKY/WX    TMP DP  RH WIND       PRES   REMARKS
SIOUX FALLS    LGT RAIN  67  62  84 SE12      29.77F
HURON          LGT RAIN  64  61  90 N10       29.74F
CHAMBERLAIN    RAIN      59  59 100 NE25G31   29.64F
MITCHELL       TSTM      62  62 100 CALM      29.75S
YANKTON        CLOUDY    61  55  82 W15       29.78R THUNDER
$$

ABBREVIATIONS USED IN REMARKS
   TC - TEMPERATURE IN CELSIUS
  WCI - WIND CHILL INDEX
   HX - HEAT INDEX
  VSB - VISIBILITY





USA.gov is the U.S. government's official web portal to all federal, state and local government web resources and services.